Satellite: SO-50
Catalog number: 27607
Epoch time:      10286.66388876
Element set:    0292
Inclination:      064.5601 deg
RA of node:       356.6455 deg
Eccentricity:    0.0043697
Arg of perigee:   027.1614 deg
Mean anomaly:     333.1781 deg
Mean motion:   14.71587579 rev/day
Decay rate:       2.09e-06 rev/day^2
Epoch rev:           41981
Checksum:              339

Satellite: CO-55
Catalog number: 27844
Epoch time:      10287.46779528
Element set:     956
Inclination:      098.7106 deg
RA of node:       294.7407 deg
Eccentricity:    0.0009561
Arg of perigee:   182.8447 deg
Mean anomaly:     177.2683 deg
Mean motion:   14.20736764 rev/day
Decay rate:        9.2e-07 rev/day^2
Epoch rev:           37802
Checksum:              356

Satellite: CO-57
Catalog number: 27848
Epoch time:      10287.51487855
Element set:     903
Inclination:      098.7155 deg
RA of node:       293.9050 deg
Eccentricity:    0.0009209
Arg of perigee:   188.2322 deg
Mean anomaly:     171.8704 deg
Mean motion:   14.20526313 rev/day
Decay rate:        4.1e-07 rev/day^2
Epoch rev:           37798
Checksum:              328

Satellite: AO-51
Catalog number: 28375
Epoch time:      10286.49443589
Element set:    0798
Inclination:      098.0726 deg
RA of node:       273.3218 deg
Eccentricity:    0.0084771
Arg of perigee:   097.7931 deg
Mean anomaly:     263.2894 deg
Mean motion:   14.40702817 rev/day
Decay rate:        3.7e-07 rev/day^2
Epoch rev:           33054
Checksum:              343

Satellite: GENESAT1
Catalog number: 29655
Epoch time:      10216.61700559
Element set:     226
Inclination:      040.0059 deg
RA of node:       067.3006 deg
Eccentricity:    0.0005079
Arg of perigee:   297.8744 deg
Mean anomaly:     064.7087 deg
Mean motion:   16.44862838 rev/day
Decay rate:  1.0637092e-01 rev/day^2
Epoch rev:           20777
Checksum:              320

Satellite: CP3
Catalog number: 31129
Epoch time:      10286.58171256
Element set:    0698
Inclination:      097.9293 deg
RA of node:       319.7543 deg
Eccentricity:    0.0101488
Arg of perigee:   225.7945 deg
Mean anomaly:     133.4895 deg
Mean motion:   14.52315921 rev/day
Decay rate:       1.87e-06 rev/day^2
Epoch rev:           18504
Checksum:              330

Satellite: CO-65
Catalog number: 32785
Epoch time:      10287.28989428
Element set:     809
Inclination:      097.8817 deg
RA of node:       350.4873 deg
Eccentricity:    0.0013802
Arg of perigee:   257.7201 deg
Mean anomaly:     102.2459 deg
Mean motion:   14.81736445 rev/day
Decay rate:       6.37e-06 rev/day^2
Epoch rev:           13312
Checksum:              331

Satellite: KKS-1
Catalog number: 33493
Epoch time:      10287.83523949
Element set:     943
Inclination:      098.0995 deg
RA of node:       048.4463 deg
Eccentricity:    0.0021116
Arg of perigee:   112.9879 deg
Mean anomaly:     247.3576 deg
Mean motion:   14.81143110 rev/day
Decay rate:       7.34e-06 rev/day^2
Epoch rev:            9319
Checksum:              321

Satellite: SOHLA-1
Catalog number: 33496
Epoch time:      10287.72837639
Element set:     229
Inclination:      098.0660 deg
RA of node:       035.3082 deg
Eccentricity:    0.0006465
Arg of perigee:   173.7989 deg
Mean anomaly:     186.3305 deg
Mean motion:   14.69523232 rev/day
Decay rate:       2.02e-06 rev/day^2
Epoch rev:            9243
Checksum:              312

Satellite: TISAT-1
Catalog number: 36799
Epoch time:      10287.77646415
Element set:     216
Inclination:      098.1357 deg
RA of node:       348.2487 deg
Eccentricity:    0.0015448
Arg of perigee:   354.5383 deg
Mean anomaly:     005.5652 deg
Mean motion:   14.80193399 rev/day
Decay rate:       4.35e-06 rev/day^2
Epoch rev:            1400
Checksum:              321

Satellite: STUDSAT
Catalog number: 36801
Epoch time:      10286.79672968
Element set:    0102
Inclination:      098.1365 deg
RA of node:       347.1712 deg
Eccentricity:    0.0013981
Arg of perigee:   345.5616 deg
Mean anomaly:     014.5193 deg
Mean motion:   14.79706755 rev/day
Decay rate:      1.035e-05 rev/day^2
Epoch rev:           01385
Checksum:              309

/EX
SB KEPS @ AMSAT  $ORB10287.W
Orbital Elements  10287.WEATHER

HR AMSAT ORBITAL ELEMENTS FOR WEATHER SATELLITES
FROM WA5QGD FORT WORTH,TX October 14, 2010
BID: ORB10287.W
TO ALL RADIO AMATEURS BT

Satellite: NOAA-10
Catalog number: 16969
Epoch time:      10287.52663626
Element set:     239
Inclination:      098.6471 deg
RA of node:       315.3225 deg
Eccentricity:    0.0011606
Arg of perigee:   221.1138 deg
Mean anomaly:     138.9181 deg
Mean motion:   14.27430473 rev/day
Decay rate:       1.29e-06 rev/day^2
Epoch rev:           25260
Checksum:              291

Satellite: NOAA-11
Catalog number: 19531
Epoch time:      10287.32320956
Element set:     248
Inclination:      098.7662 deg
RA of node:       014.3016 deg
Eccentricity:    0.0011380
Arg of perigee:   164.4403 deg
Mean anomaly:     195.7129 deg
Mean motion:   14.14937229 rev/day
Decay rate:      -1.79e-06 rev/day^2
Epoch rev:           13798
Checksum:              303

Satellite: NOAA-12
Catalog number: 21263
Epoch time:      10287.38176840
Element set:     742
Inclination:      098.7636 deg
RA of node:       300.5230 deg
Eccentricity:    0.0012463
Arg of perigee:   176.8919 deg
Mean anomaly:     183.2351 deg
Mean motion:   14.25658626 rev/day
Decay rate:       -8.3e-07 rev/day^2
Epoch rev:             938
Checksum:              305

